Regional Weather Roundup
Issued by NWS

Home | Current Version | Previous Version | Graphics & Text | Print | Product List | Glossary On
Versions: 1 2 3 4 5 6 7 8 9 10 11 12 13 14 15 16 17 18 19 20 21 22 23 24 25 26 27 28 29 30 31 32 33 34 35 36 37 38 39 40 41 42 43 44 45 46 47 48 49 50
000
ASUS43 KFSD 290210
RWRSD

WEATHER ROUNDUP FOR SOUTH DAKOTA
NATIONAL WEATHER SERVICE SIOUX FALLS SD
900 PM CDT TUE JUL 28 2015

NOTE: "FAIR" INDICATES FEW OR NO CLOUDS BELOW 12,000 FEET WITH NO
SIGNIFICANT WEATHER AND/OR OBSTRUCTIONS TO VISIBILITY.


SDZ001>005-009-010-012>017-290300-
NORTHWEST AND NORTH CENTRAL SOUTH DAKOTA

CITY           SKY/WX    TMP DP  RH WIND       PRES   REMARKS
BUFFALO          N/A     69  36  29 W30G41    30.00R
FAITH            N/A     69  39  33 W15G26    30.04R
MOBRIDGE       CLEAR     71  47  42 W16G26    29.93R
$$

SDZ012>016-024>037-041>051-057-063-072>074-290300-
SOUTHWEST AND SOUTH CENTRAL SOUTH DAKOTA

CITY           SKY/WX    TMP DP  RH WIND       PRES   REMARKS
RAPID CTY ARPT CLEAR     66  47  50 N10       30.11R
PIERRE         CLEAR     74  46  36 NW20      29.99R
CUSTER         CLEAR     61  35  37 NW7       30.22R
ELLSWORTH AFB  CLEAR     70  44  38 NW13      30.10R
PHILIP         CLEAR     70  48  45 NW9       30.05R
PINE RIDGE     CLEAR     71  41  33 N5        30.11R
SPEARFISH      FAIR      64  39  39 NW12G21   30.16R
WINNER         FAIR      73  51  46 NW7       30.03R
$$

SDZ004>011-016>023-039-040-290300-
NORTHEAST SOUTH DAKOTA

CITY           SKY/WX    TMP DP  RH WIND       PRES   REMARKS
ABERDEEN       CLEAR     71  50  47 W13       29.90R
WATERTOWN      CLEAR     72  53  51 W12       29.93R
BROOKINGS      CLEAR     72  55  56 W8        29.96R
SISSETON         N/A     71  50  47 NW16G25   29.87R
$$

SDZ017-020-022-023-036>040-048>070-290300-
SOUTHEAST SOUTH DAKOTA

CITY           SKY/WX    TMP DP  RH WIND       PRES   REMARKS
SIOUX FALLS    PTCLDY    70  58  65 W3        29.95R
HURON          CLEAR     70  55  59 NW9       29.94R
CHAMBERLAIN    CLEAR     72  50  45 NW7       30.00R
MITCHELL       CLEAR     73  52  47 W9        29.96R
YANKTON        CLEAR     72  57  60 W8        29.96R
$$

ABBREVIATIONS USED IN REMARKS
   TC - TEMPERATURE IN CELSIUS
  WCI - WIND CHILL INDEX
   HX - HEAT INDEX
  VSB - VISIBILITY




USA.gov is the U.S. government's official web portal to all federal, state and local government web resources and services.